Weather History for Manteo, NC

Change the Weather History Date:

Saturday, February 9, 2013

  Actual Average Record
Temperature  
Mean Temperature 44 °F -  
Max Temperature 48 °F 49 °F 72 °F (1990)
Min Temperature 39 °F 37 °F 17 °F (1977)
Degree Days  
Heating Degree Days 22    
Moisture  
Dew Point 29 °F    
Average Humidity 58    
Maximum Humidity 70    
Minimum Humidity 44    
Precipitation  
Precipitation 0.00 in - - ()
Sea Level Pressure  
Sea Level Pressure 30.16 in    
Wind  
Wind Speed 13 mph (NNW)    
Max Wind Speed 18 mph    
Max Gust Speed 36 mph    
Visibility 10 miles    
Events      
Averages and records for this station are not official NWS values.
T = Trace of Precipitation, MM = Missing Value Source: NWS Daily Summary

Daily Weather History Graph

Daily Weather History Graph

Search for Another Location

Airport:

Trip Planner

Search our weather history database for the weather conditions in past years. The results will help you decide how hot, cold, wet, or windy it might be!

Date:

Astronomy

Feb. 09, 2013 Rise Set
Actual Time 6:55 AM EST 5:38 PM EST
Civil Twilight 6:29 AM EST 6:05 PM EST
Nautical Twilight 5:59 AM EST 6:35 PM EST
Astronomical Twilight 5:29 AM EST 7:05 PM EST
Moon 6:06 AM EST (2/9) 5:17 PM EST (2/9)
Length of Visible Light 11h 35m
Length of Day
10h 42m
Waning Crescent, 0% of the Moon is Illuminated
Feb 9
Waning Crescent
Feb 10
New
Feb 17
First Quarter
Feb 25
Full
Mar 4
Last Quarter

Hourly Weather History & Observations

Time (EST) Temp. Windchill Dew Point Humidity Pressure Visibility Wind Dir Wind Speed Gust Speed Precip Events Conditions
12:15 AM 46.4 °F 40.7 °F 35.6 °F 66% 29.91 in 10.0 mi NW 12.7 mph 21.9 mph N/A   Clear
12:35 AM 45.9 °F 39.4 °F 34.2 °F 64% 29.92 in 10.0 mi NW 15.0 mph 25.3 mph N/A   Clear
12:55 AM 45.5 °F 38.3 °F 33.3 °F 62% 29.92 in 10.0 mi WNW 17.3 mph 32.2 mph N/A   Clear
1:15 AM 44.8 °F 37.7 °F 33.1 °F 64% 29.92 in 10.0 mi WNW 16.1 mph 24.2 mph N/A   Clear
1:35 AM 44.6 °F 36.9 °F 32.2 °F 62% 29.92 in 10.0 mi NW 18.4 mph 26.5 mph N/A   Clear
1:55 AM 44.2 °F 36.7 °F 32.2 °F 63% 29.93 in 10.0 mi NW 17.3 mph 24.2 mph N/A   Clear
2:15 AM 43.9 °F 36.5 °F 31.5 °F 62% 29.94 in 10.0 mi NW 16.1 mph 27.6 mph N/A   Clear
2:35 AM 43.7 °F 37.3 °F 32.0 °F 63% 29.95 in 10.0 mi WNW 12.7 mph 21.9 mph N/A   Clear
2:55 AM 43.3 °F 36.8 °F 32.0 °F 64% 29.96 in 10.0 mi NW 12.7 mph 26.5 mph N/A   Clear
3:15 AM 43.0 °F 35.7 °F 31.3 °F 63% 29.96 in 10.0 mi WNW 15.0 mph 26.5 mph N/A   Clear
3:35 AM 43.0 °F 36.4 °F 30.4 °F 61% 29.97 in 10.0 mi NW 12.7 mph 25.3 mph N/A   Clear
3:55 AM 42.6 °F 34.3 °F 30.7 °F 63% 29.98 in 10.0 mi NW 18.4 mph 27.6 mph N/A   Clear
4:15 AM 42.1 °F 34.2 °F 30.2 °F 63% 29.99 in 10.0 mi NW 16.1 mph 25.3 mph N/A   Clear
4:35 AM 41.7 °F 34.8 °F 30.2 °F 64% 30.00 in 10.0 mi NW 12.7 mph 23.0 mph N/A   Clear
4:55 AM 41.2 °F 35.5 °F 29.7 °F 64% 30.00 in 10.0 mi NW 9.2 mph 21.9 mph N/A   Clear
5:15 AM 41.0 °F 33.5 °F 29.3 °F 63% 30.01 in 10.0 mi NNW 13.8 mph 25.3 mph N/A   Clear
5:35 AM 40.3 °F 33.9 °F 29.5 °F 65% 30.02 in 10.0 mi NW 10.4 mph 25.3 mph N/A   Clear
5:55 AM 40.3 °F 33.0 °F 29.8 °F 66% 30.04 in 10.0 mi NNW 12.7 mph 24.2 mph N/A   Clear
6:15 AM 39.6 °F 31.7 °F 28.8 °F 65% 30.05 in 10.0 mi NNW 13.8 mph 21.9 mph N/A   Scattered Clouds
6:35 AM 39.2 °F 31.6 °F 28.0 °F 64% 30.06 in 10.0 mi NNW 12.7 mph 20.7 mph N/A   Clear
6:55 AM 39.2 °F 31.2 °F 27.7 °F 63% 30.08 in 10.0 mi NNW 13.8 mph 23.0 mph N/A   Clear
7:15 AM 39.4 °F 30.4 °F 26.1 °F 59% 30.10 in 10.0 mi NW 17.3 mph 24.2 mph N/A   Scattered Clouds
7:35 AM 39.6 °F 33.0 °F 25.5 °F 57% 30.12 in 10.0 mi NW 10.4 mph 32.2 mph N/A   Scattered Clouds
7:55 AM 39.4 °F 30.4 °F 24.1 °F 54% 30.14 in 10.0 mi NNW 17.3 mph 31.1 mph N/A   Scattered Clouds
8:15 AM 40.1 °F 31.3 °F 24.6 °F 54% 30.14 in 10.0 mi NNW 17.3 mph 28.8 mph N/A   Scattered Clouds
8:35 AM 40.6 °F 32.7 °F 25.7 °F 55% 30.16 in 10.0 mi NNW 15.0 mph 26.5 mph N/A   Scattered Clouds
8:55 AM 40.1 °F 31.6 °F 24.4 °F 54% 30.17 in 10.0 mi NNW 16.1 mph 35.7 mph N/A   Scattered Clouds
9:15 AM 40.3 °F 32.2 °F 25.5 °F 56% 30.17 in 10.0 mi NNW 15.0 mph 26.5 mph N/A   Clear
9:35 AM 40.6 °F 31.7 °F 24.8 °F 53% 30.17 in 10.0 mi NNW 18.4 mph 27.6 mph N/A   Clear
9:55 AM 40.8 °F 32.6 °F 24.6 °F 53% 30.18 in 10.0 mi NNW 16.1 mph 27.6 mph N/A   Clear
10:15 AM 41.2 °F 34.1 °F 25.0 °F 53% 30.19 in 10.0 mi NNW 12.7 mph 25.3 mph N/A   Clear
10:35 AM 41.2 °F 34.1 °F 24.3 °F 51% 30.19 in 10.0 mi NNW 12.7 mph 26.5 mph N/A   Clear
10:55 AM 42.3 °F 35.5 °F 25.5 °F 52% 30.20 in 10.0 mi NNW 12.7 mph 21.9 mph N/A   Clear
11:15 AM 42.6 °F 35.2 °F 25.3 °F 51% 30.20 in 10.0 mi NNW 15.0 mph 25.3 mph N/A   Clear
11:35 AM 42.8 °F 35.8 °F 25.3 °F 50% 30.19 in 10.0 mi NW 13.8 mph 23.0 mph N/A   Clear
11:55 AM 43.7 °F 36.9 °F 25.5 °F 49% 30.19 in 10.0 mi NW 13.8 mph 24.2 mph N/A   Clear
12:15 PM 43.9 °F 37.2 °F 26.6 °F 51% 30.19 in 10.0 mi NW 13.8 mph 20.7 mph N/A   Clear
12:35 PM 44.6 °F 38.4 °F 26.6 °F 49% 30.19 in 10.0 mi NW 12.7 mph 21.9 mph N/A   Clear
12:55 PM 45.7 °F 39.5 °F 26.2 °F 47% 30.19 in 10.0 mi NW 13.8 mph 24.2 mph N/A   Clear
1:15 PM 45.9 °F 41.2 °F 26.4 °F 47% 30.18 in 10.0 mi NNW 9.2 mph 21.9 mph N/A   Clear
1:35 PM 46.4 °F 40.4 °F 26.2 °F 45% 30.19 in 10.0 mi NNW 13.8 mph 24.2 mph N/A   Clear
1:55 PM 46.9 °F - 26.8 °F 45% 30.19 in 10.0 mi NW 11.5 mph 20.7 mph N/A   Clear
2:15 PM 47.5 °F - 28.0 °F 47% 30.19 in 10.0 mi NNW 11.5 mph 20.7 mph N/A   Clear
2:35 PM 47.7 °F - 27.1 °F 45% 30.19 in 10.0 mi NNW 9.2 mph 19.6 mph N/A   Clear
2:55 PM 48.4 °F - 27.3 °F 44% 30.19 in 10.0 mi NW 11.5 mph 19.6 mph N/A   Clear
3:15 PM 48.7 °F - 27.9 °F 44% 30.20 in 10.0 mi NW 10.4 mph - N/A   Clear
3:35 PM 48.4 °F - 27.9 °F 45% 30.20 in 10.0 mi NW 10.4 mph 18.4 mph N/A   Clear
3:55 PM 48.7 °F - 28.2 °F 45% 30.21 in 10.0 mi NW 9.2 mph - N/A   Clear
4:15 PM 48.2 °F - 27.5 °F 45% 30.22 in 10.0 mi NNW 8.1 mph 16.1 mph N/A   Clear
4:35 PM 47.8 °F - 27.5 °F 45% 30.23 in 10.0 mi NNW 10.4 mph 19.6 mph N/A   Clear
4:55 PM 47.3 °F - 27.3 °F 46% 30.23 in 10.0 mi NNW 8.1 mph - N/A   Clear
5:15 PM 46.4 °F 41.5 °F 28.0 °F 49% 30.24 in 10.0 mi North 10.4 mph - N/A   Clear
5:35 PM 45.0 °F 39.7 °F 30.2 °F 56% 30.24 in 10.0 mi North 10.4 mph - N/A   Clear
5:55 PM 44.6 °F 39.2 °F 29.8 °F 56% 30.25 in 10.0 mi North 10.4 mph - N/A   Clear
6:15 PM 44.6 °F 39.2 °F 30.4 °F 57% 30.27 in 10.0 mi North 10.4 mph - N/A   Clear
6:35 PM 42.8 °F 38.0 °F 32.0 °F 66% 30.27 in 10.0 mi North 8.1 mph - N/A   Clear
6:55 PM 42.3 °F 36.3 °F 33.1 °F 70% 30.29 in 10.0 mi North 10.4 mph - N/A   Clear
7:15 PM 42.1 °F 36.6 °F 32.4 °F 68% 30.30 in 10.0 mi North 9.2 mph - N/A   Clear
7:35 PM 41.9 °F 36.9 °F 31.8 °F 67% 30.31 in 10.0 mi North 8.1 mph - N/A   Clear
7:55 PM 41.9 °F 36.9 °F 31.8 °F 67% 30.31 in 10.0 mi North 8.1 mph - N/A   Clear
8:15 PM 41.9 °F 35.9 °F 31.5 °F 66% 30.32 in 10.0 mi North 10.4 mph - N/A   Clear
8:35 PM 42.1 °F 37.1 °F 30.2 °F 63% 30.32 in 10.0 mi North 8.1 mph 17.3 mph N/A   Clear
8:55 PM 41.7 °F 36.1 °F 29.7 °F 62% 30.32 in 10.0 mi North 9.2 mph - N/A   Clear
9:15 PM 41.2 °F 36.0 °F 29.8 °F 64% 30.33 in 10.0 mi North 8.1 mph - N/A   Clear
9:35 PM 41.2 °F 35.5 °F 29.3 °F 63% 30.33 in 10.0 mi North 9.2 mph - N/A   Clear
9:55 PM 41.2 °F 35.0 °F 28.6 °F 61% 30.34 in 10.0 mi North 10.4 mph 16.1 mph N/A   Clear
10:15 PM 41.0 °F 35.2 °F 29.3 °F 63% 30.34 in 10.0 mi North 9.2 mph - N/A   Clear
10:35 PM 40.6 °F 35.4 °F 30.2 °F 66% 30.34 in 10.0 mi North 8.1 mph - N/A   Clear
10:55 PM 40.1 °F 36.1 °F 31.1 °F 70% 30.34 in 10.0 mi North 5.8 mph - N/A   Clear
11:15 PM 40.5 °F 34.6 °F 30.4 °F 67% 30.35 in 10.0 mi North 9.2 mph - N/A   Clear
11:35 PM 41.0 °F 35.2 °F 29.5 °F 64% 30.35 in 10.0 mi North 9.2 mph - N/A   Clear
11:55 PM 41.2 °F 34.5 °F 28.2 °F 60% 30.36 in 10.0 mi North 11.5 mph - N/A   Clear